This demonstration page uses our WeatherBlox Daily Observations layout. Learn more.

Left ArrowRight Arrow

30.21309, -93.2044

Hourly Observations for August 12, 2020

Temp ( °F °C ) Dew Point ( °F °C ) Humidity (%) Winds ( mph kmh ) Pressure ( in mb ) Visibility ( mi km ) Precip ( " mm )
12:15 am 00:15 Clear 78 25.8 77 24.9 95 95 S 6 9 30.00 1016 10 16 0.00 0.00
12:35 am 00:35 Clear 79 25.9 77 24.9 94 94 SSE 5 7 29.99 1016 10 16 0.00 0.00
12:55 am 00:55 Clear 78 25.3 76 24.7 96 96 SSE 6 9 29.99 1016 10 16 0.00 0.00
1:15 am 01:15 Clear 78 25.4 76 24.7 96 96 Calm 29.98 1015 10 16 0.00 0.00
1:35 am 01:35 Clear 78 25.4 77 24.8 96 96 Calm 29.98 1015 10 16 0.00 0.00
1:55 am 01:55 Clear 78 25.6 77 24.9 96 96 Calm 29.98 1015 10 16 0.00 0.00
2:15 am 02:15 Clear 78 25.4 76 24.6 95 95 SSE 3 6 29.98 1015 10 16 0.00 0.00
2:35 am 02:35 Clear 77 24.9 76 24.4 97 97 SSE 3 6 29.98 1015 10 16 0.00 0.00
2:55 am 02:55 Partly Cloudy 77 25.1 76 24.7 98 98 SSW 5 7 29.97 1015 10 16 0.00 0.00
3:15 am 03:15 Partly Cloudy 78 25.4 76 24.6 95 95 Calm 29.97 1015 10 16 0.00 0.00
3:35 am 03:35 Clear 77 24.9 76 24.4 97 97 Calm 29.98 1015 10 16 0.00 0.00
3:55 am 03:55 Clear 78 25.4 77 24.9 97 97 Calm 29.97 1015 10 16 0.00 0.00
4:15 am 04:15 Clear 78 25.8 77 25 95 95 Calm 29.97 1015 10 16 0.00 0.00
4:35 am 04:35 Mostly Cloudy 77 25.1 76 24.6 97 97 SE 5 7 29.97 1015 10 16 0.00 0.00
4:55 am 04:55 Mostly Cloudy 77 25.1 76 24.6 97 97 Calm 29.96 1015 10 16 0.00 0.00
5:15 am 05:15 Partly Cloudy 78 25.5 77 24.8 96 96 Calm 29.96 1015 10 16 0.00 0.00
5:35 am 05:35 Clear 76 24.7 76 24.3 98 98 Calm 29.96 1015 10 16 0.00 0.00
6:00 am 06:00 Mostly Clear 77 25 75 24 94 94 Calm 29.97 1015 10 16 0.00 0.00
6:47 am 06:47 Mostly Sunny 77 25 75 24 94 94 Calm 29.99 1016 10 16 0.00 0.00
7:45 am 07:45 Partly Cloudy 81 27 79 26 94 94 Calm 29.99 1016 10 16 0.00 0.00
8:45 am 08:45 Partly Cloudy 86 30 79 26 79 79 SW 8 13 30.01 1016 10 16 0.00 0.00
9:50 am 09:50 Partly Cloudy 90 32 75 24 63 63 SSW 12 19 30.00 1016 10 16 0.00 0.00
10:50 am 10:50 Partly Cloudy 90 32 75 24 63 63 WSW 10 17 30.01 1016 10 16 0.00 0.00
11:50 am 11:50 Partly Cloudy 91 33 75 24 59 59 SSW 8 13 30.00 1016 10 16 0.00 0.00
12:45 pm 12:45 Partly Cloudy 91 33 75 24 59 59 SW 8 13 29.99 1016 10 16 0.00 0.00
1:50 pm 13:50 Mostly Cloudy 91 33 75 24 59 59 WSW 9 15 29.98 1015 10 16 0.00 0.00
2:50 pm 14:50 Mostly Cloudy with Thunderstorms 88 31 72 22 59 59 NNW 16 26 29.97 1015 10 16 0.00 0.00
3:50 pm 15:50 Mostly Cloudy with Thunderstorms 81 27 70 21 70 70 ENE 14 22 29.98 1015 10 16 0.00 0.00
4:10 pm 16:10 Cloudy with Strong Thunderstorms 81 27 73 23 79 79 W 22 35 29.98 1015 2 3 0.00 0.00
4:45 pm 16:45 Partly Cloudy with Light Rain 81 27 73 23 79 79 Calm 29.97 1015 10 16 0.00 0.00
5:50 pm 17:50 Partly Cloudy 81 27 75 24 84 84 SSE 6 9 29.94 1014 10 16 0.00 0.00
6:50 pm 18:50 Mostly Sunny 82 28 75 24 79 79 SE 5 7 29.93 1014 10 16 0.00 0.00
8:50 pm 20:50 Mostly Clear 79 26 77 25 94 94 S 5 7 29.95 1014 10 16 0.00 0.00
9:45 pm 21:45 Mostly Clear 82 28 79 26 89 89 S 5 7 29.97 1015 10 16 0.00 0.00
10:15 pm 22:15 Clear 79 26 77 25.1 95 95 Calm 29.97 1015 10 16 0.00 0.00
10:35 pm 22:35 Clear 80 26.8 78 25.3 92 92 SSW 5 7 29.97 1015 10 16 0.00 0.00
10:55 pm 22:55 Clear 82 27.5 77 25.2 87 87 SSW 5 7 29.97 1015 10 16 0.00 0.00
11:15 pm 23:15 Clear 81 27.2 77 25.2 89 89 SSW 5 7 29.97 1015 10 16 0.00 0.00
11:35 pm 23:35 Clear 80 26.5 77 24.9 91 91 S 3 6 29.97 1015 10 16 0.00 0.00
11:55 pm 23:55 Clear 78 25.6 76 24.7 95 95 S 5 7 29.97 1015 10 16 0.00 0.00

Powered by AerisWeather